Weather History for Minden, LA

Change the Weather History Date:

Tuesday, April 9, 2013

  Actual Average (KBAD) Record (KBAD)
Temperature  
Mean Temperature 76 °F -  
Max Temperature 87 °F 71 °F 91 °F (2011)
Min Temperature 65 °F 52 °F 37 °F (2014)
Cooling Degree Days 11    
Growing Degree Days 26 (Base 50)    
Moisture  
Dew Point 64 °F    
Average Humidity 69    
Maximum Humidity 86    
Minimum Humidity 42    
Precipitation  
Precipitation 0.00 in - - ()
Sea Level Pressure  
Sea Level Pressure 29.84 in    
Wind  
Wind Speed 9 mph (SSE)    
Max Wind Speed 22 mph    
Max Gust Speed 38 mph    
Visibility 10 miles    
Events Thunderstorm    
Averages and records for this station are not official NWS values.
T = Trace of Precipitation, MM = Missing Value Source: NWS Daily Summary

Daily Weather History Graph

Daily Weather History Graph

Search for Another Location

Airport:

Trip Planner

Search our weather history database for the weather conditions in past years. The results will help you decide how hot, cold, wet, or windy it might be!

Date:

Astronomy

Apr. 09, 2013 Rise Set
Actual Time 6:50 AM CDT 7:39 PM CDT
Civil Twilight 6:25 AM CDT 8:04 PM CDT
Nautical Twilight 5:56 AM CDT 8:33 PM CDT
Astronomical Twilight 5:25 AM CDT 9:04 PM CDT
Moon 6:12 AM CDT (4/9) 7:14 PM CDT (4/9)
Length of Visible Light 13h 38m
Length of Day
12h 48m
Waning Crescent, 1% of the Moon is Illuminated
Apr 9
Waning Crescent
Apr 10
New
Apr 18
First Quarter
Apr 25
Full
May 2
Last Quarter

Hourly Weather History & Observations

Time (CDT) Temp. Heat Index Dew Point Humidity Pressure Visibility Wind Dir Wind Speed Gust Speed Precip Events Conditions
12:15 AM 68.0 °F - 59.4 °F 74% 29.87 in 10.0 mi SE 5.8 mph - N/A   Clear
12:35 AM 67.1 °F - 59.5 °F 77% 29.86 in 10.0 mi SE 5.8 mph - N/A   Clear
1:15 AM 67.6 °F - 60.3 °F 77% 29.85 in 10.0 mi SE 9.2 mph - N/A   Mostly Cloudy
1:35 AM 67.5 °F - 60.3 °F 78% 29.84 in 10.0 mi SE 5.8 mph - N/A   Mostly Cloudy
1:55 AM 66.9 °F - 60.3 °F 79% 29.84 in 10.0 mi SE 6.9 mph - N/A   Mostly Cloudy
2:15 AM 67.1 °F - 60.4 °F 79% 29.84 in 10.0 mi SSE 6.9 mph - N/A   Overcast
2:35 AM 67.1 °F - 60.8 °F 80% 29.83 in 10.0 mi SE 6.9 mph - N/A   Overcast
2:55 AM 67.1 °F - 61.0 °F 81% 29.83 in 10.0 mi SSE 8.1 mph - N/A   Overcast
3:15 AM 67.5 °F - 61.3 °F 81% 29.83 in 10.0 mi SSE 8.1 mph 16.1 mph N/A   Overcast
3:35 AM 67.6 °F - 61.3 °F 80% 29.84 in 10.0 mi South 10.4 mph 19.6 mph N/A   Overcast
3:55 AM 67.6 °F - 61.7 °F 81% 29.84 in 10.0 mi SSE 5.8 mph - N/A   Overcast
4:15 AM 68.0 °F - 61.7 °F 80% 29.84 in 10.0 mi SSE 5.8 mph 16.1 mph N/A   Overcast
4:35 AM 68.2 °F - 61.7 °F 80% 29.85 in 10.0 mi SSE 9.2 mph 16.1 mph N/A   Overcast
4:55 AM 67.6 °F - 61.5 °F 81% 29.85 in 10.0 mi SSE 5.8 mph - N/A   Overcast
5:15 AM 67.1 °F - 61.5 °F 82% 29.85 in 10.0 mi SE 5.8 mph - N/A   Overcast
5:35 AM 66.2 °F - 61.3 °F 84% 29.85 in 10.0 mi SE 5.8 mph - N/A   Mostly Cloudy
5:55 AM 65.8 °F - 61.2 °F 85% 29.86 in 10.0 mi SE 4.6 mph - N/A   Mostly Cloudy
6:15 AM 65.5 °F - 61.2 °F 86% 29.85 in 10.0 mi SE 6.9 mph - N/A   Mostly Cloudy
6:35 AM 65.7 °F - 61.3 °F 86% 29.86 in 10.0 mi SE 4.6 mph - N/A   Overcast
6:55 AM 65.7 °F - 61.5 °F 86% 29.87 in 10.0 mi SE 4.6 mph - N/A   Overcast
7:15 AM 66.4 °F - 61.9 °F 85% 29.87 in 10.0 mi SE 4.6 mph - N/A   Overcast
7:35 AM 67.1 °F - 62.6 °F 85% 29.88 in 10.0 mi SE 9.2 mph - N/A   Overcast
7:55 AM 67.5 °F - 62.8 °F 85% 29.88 in 10.0 mi SE 6.9 mph - N/A   Mostly Cloudy
8:15 AM 68.9 °F - 63.3 °F 82% 29.87 in 7.0 mi SE 6.9 mph - N/A   Mostly Cloudy
8:35 AM 70.3 °F - 63.7 °F 79% 29.87 in 10.0 mi SE 10.4 mph - N/A   Mostly Cloudy
8:55 AM 71.8 °F - 63.5 °F 75% 29.87 in 10.0 mi SE 10.4 mph 16.1 mph N/A   Mostly Cloudy
9:15 AM 72.0 °F - 63.1 °F 74% 29.87 in 10.0 mi South 11.5 mph 20.7 mph N/A   Overcast
9:35 AM 73.0 °F - 62.2 °F 69% 29.87 in 10.0 mi SSE 12.7 mph 21.9 mph N/A   Overcast
9:55 AM 74.1 °F - 61.7 °F 65% 29.88 in 10.0 mi South 11.5 mph 21.9 mph N/A   Mostly Cloudy
10:15 AM 75.2 °F - 61.2 °F 62% 29.88 in 10.0 mi SE 16.1 mph 21.9 mph N/A   Mostly Cloudy
10:35 AM 75.6 °F - 61.0 °F 60% 29.89 in 10.0 mi SSE 12.7 mph 24.2 mph N/A   Mostly Cloudy
10:55 AM 77.0 °F - 61.5 °F 59% 29.89 in 10.0 mi South 13.8 mph 24.2 mph N/A   Mostly Cloudy
11:15 AM 77.7 °F - 62.4 °F 59% 29.89 in 10.0 mi SSE 17.3 mph 26.5 mph N/A   Overcast
11:35 AM 77.9 °F - 62.8 °F 60% 29.89 in 10.0 mi South 12.7 mph 23.0 mph N/A   Overcast
11:55 AM 80.2 °F 81.5 °F 63.0 °F 55% 29.88 in 10.0 mi SSE 12.7 mph 21.9 mph N/A   Mostly Cloudy
12:15 PM 80.4 °F 81.6 °F 62.6 °F 54% 29.87 in 10.0 mi SSE 16.1 mph 24.2 mph N/A   Mostly Cloudy
12:35 PM 82.6 °F 83.6 °F 63.0 °F 51% 29.85 in 10.0 mi SSE 10.4 mph 24.2 mph N/A   Mostly Cloudy
12:55 PM 82.8 °F 83.6 °F 62.6 °F 50% 29.85 in 10.0 mi SSE 11.5 mph 23.0 mph N/A   Mostly Cloudy
1:15 PM 84.0 °F 84.7 °F 62.6 °F 48% 29.84 in 10.0 mi SSE 13.8 mph 26.5 mph N/A   Scattered Clouds
1:35 PM 84.2 °F 85.0 °F 62.4 °F 48% 29.83 in 10.0 mi South 10.4 mph 31.1 mph N/A   Mostly Cloudy
1:55 PM 84.2 °F 85.2 °F 63.0 °F 49% 29.82 in 10.0 mi SE 18.4 mph 25.3 mph N/A   Mostly Cloudy
2:15 PM 86.2 °F 87.1 °F 63.0 °F 46% 29.81 in 10.0 mi SSE 11.5 mph 27.6 mph N/A   Mostly Cloudy
2:35 PM 87.8 °F 88.2 °F 62.1 °F 42% 29.81 in 10.0 mi South 16.1 mph 27.6 mph N/A   Scattered Clouds
2:55 PM 85.1 °F 85.2 °F 60.8 °F 44% 29.81 in 10.0 mi South 15.0 mph 31.1 mph N/A   Scattered Clouds
3:15 PM 83.5 °F 84.3 °F 62.2 °F 49% 29.79 in 10.0 mi SSE 13.8 mph 31.1 mph N/A   Scattered Clouds
3:35 PM 82.0 °F 83.1 °F 62.6 °F 52% 29.73 in 10.0 mi ESE 21.9 mph 38.0 mph N/A   Scattered Clouds
3:55 PM 82.8 °F 84.0 °F 63.5 °F 52% 29.78 in 10.0 mi SSE 6.9 mph - N/A   Scattered Clouds
4:15 PM 84.4 °F 86.1 °F 64.9 °F 52% 29.78 in 10.0 mi SSE 12.7 mph 23.0 mph N/A   Clear
4:35 PM 82.9 °F 85.0 °F 65.8 °F 56% 29.78 in 10.0 mi South 12.7 mph 24.2 mph N/A   Scattered Clouds
4:55 PM 81.5 °F 83.9 °F 66.9 °F 61% 29.79 in 10.0 mi SSE 15.0 mph 24.2 mph N/A   Mostly Cloudy
5:15 PM 79.9 °F - 67.3 °F 65% 29.79 in 10.0 mi SE 13.8 mph 27.6 mph N/A Thunderstorm Thunderstorm
5:35 PM 78.8 °F - 67.5 °F 68% 29.81 in 10.0 mi SE 12.7 mph 21.9 mph N/A Thunderstorm Thunderstorm
5:55 PM 78.1 °F - 68.0 °F 71% 29.81 in 10.0 mi SSE 9.2 mph 20.7 mph N/A Thunderstorm Thunderstorm
6:15 PM 78.4 °F - 68.0 °F 70% 29.81 in 10.0 mi SSE 9.2 mph 18.4 mph N/A Thunderstorm Thunderstorm
6:35 PM 78.6 °F - 67.8 °F 69% 29.81 in 7.0 mi SSE 8.1 mph 16.1 mph N/A   Mostly Cloudy
6:55 PM 79.0 °F - 68.0 °F 69% 29.81 in 10.0 mi SSE 12.7 mph 21.9 mph N/A   Overcast
7:15 PM 78.8 °F - 67.5 °F 68% 29.81 in 10.0 mi SSE 13.8 mph 26.5 mph N/A   Overcast
7:35 PM 78.1 °F - 67.1 °F 69% 29.81 in 10.0 mi SE 16.1 mph 23.0 mph N/A   Overcast
7:55 PM 77.9 °F - 67.1 °F 69% 29.83 in 10.0 mi SSE 12.7 mph 18.4 mph N/A   Overcast
8:15 PM 77.5 °F - 67.1 °F 70% 29.83 in 10.0 mi SSE 11.5 mph 21.9 mph N/A   Overcast
8:35 PM 77.2 °F - 66.7 °F 70% 29.84 in 10.0 mi SE 12.7 mph 19.6 mph N/A   Overcast
8:55 PM 77.0 °F - 66.6 °F 70% 29.85 in 10.0 mi SSE 9.2 mph 18.4 mph N/A   Overcast
9:15 PM 77.0 °F - 66.6 °F 70% 29.86 in 10.0 mi SSE 10.4 mph 20.7 mph N/A   Overcast
9:55 PM 76.6 °F - 66.7 °F 71% 29.86 in 10.0 mi SSE 8.1 mph - N/A   Overcast
10:15 PM 76.5 °F - 66.7 °F 72% 29.86 in 10.0 mi SSE 8.1 mph 16.1 mph N/A   Overcast
10:35 PM 76.3 °F - 66.6 °F 72% 29.86 in 10.0 mi SSE 11.5 mph 17.3 mph N/A   Overcast
10:55 PM 76.1 °F - 66.6 °F 72% 29.87 in 10.0 mi SSE 9.2 mph 20.7 mph N/A   Overcast
11:15 PM 76.1 °F - 66.7 °F 73% 29.86 in 10.0 mi SSE 10.4 mph 23.0 mph N/A   Overcast
11:35 PM 76.1 °F - 67.1 °F 74% 29.85 in 10.0 mi SSE 9.2 mph 18.4 mph N/A   Overcast
11:55 PM 75.6 °F - 67.1 °F 75% 29.85 in 10.0 mi SSE 9.2 mph 17.3 mph N/A   Overcast